Location: Riddle Hill
(39.7867°N, 89.7645°W)
Time: 14:52:03
(UTC+00:00)

Daily predictions for brighter satellites

Satellite Brightness Start Highest point End
(mag) Time Altitude Azimuth Time Altitude Azimuth Time Altitude Azimuth
Cosmos 1656 3.8 23:19:05 10° S 23:24:28 55° ESE 23:29:58 10° NNE
Cosmos 968 Rocket 4.4 23:20:26 10° N 23:24:49 27° ENE 23:29:08 10° ESE
CZ-4B R/B 1.2 23:25:08 10° NNE 23:28:15 57° E 23:31:18 10° S
Cosmos 1300 2.6 23:24:29 10° S 23:28:17 84° E 23:32:07 10° N
SAR-Lupe-4 4.2 23:25:37 10° NNE 23:28:54 34° E 23:32:11 10° SSE
Aureole 3 Rocket 3.5 23:25:28 10° SSE 23:29:12 45° E 23:34:16 10° NNE
NOAA 12 4.1 23:24:37 10° SSE 23:29:54 81° ENE 23:35:15 10° N
NOSS 3-3 (A) 4.3 23:25:01 10° S 23:30:18 41° ESE 23:36:08 10° NE
NOSS 3-3 (C) 4.3 23:25:09 10° S 23:30:25 41° ESE 23:36:14 10° NE
USA 307 4.5 23:28:21 10° NNW 23:31:37 21° NNE 23:34:51 10° ENE
Cosmos 1400 Rocket 2.9 23:28:34 10° S 23:32:36 56° E 23:36:36 10° NNE
CZ-4B R/B 3.5 23:29:04 10° S 23:34:40 79° WSW 23:40:12 10° NNW
H-2A R/B 3.6 23:32:25 10° N 23:36:14 37° WNW 23:39:59 10° SW
Cosmos 1825 4.1 23:35:44 10° ENE 23:36:24 10° ENE 23:37:02 10° E
USA 308 4.4 23:33:18 10° NNW 23:36:39 22° NNE 23:39:51 11° ENE
Cosmos 2369 4.5 23:32:30 10° SSE 23:37:26 31° ESE 23:42:23 10° NE
GPS 2-04 Rocket1 4.2 23:34:11 10° SW 23:37:32 26° SSE 23:41:01 10° ESE
ERS-2 2.1 23:34:06 10° NNE 23:37:45 87° WNW 23:41:24 10° SSW
COSMO-SKYMED 1 3.1 23:34:39 10° NNE 23:38:43 38° E 23:42:45 10° SSE
Cosmos 1302 Rocket 4.2 23:36:27 10° SSW 23:41:42 82° WNW 23:47:01 10° NNE
Helios 1A Rocket 4.0 23:38:47 10° ESE 23:42:04 24° ENE 23:45:21 10° NNE
OAO 2 Rocket 4.0 23:37:30 10° WSW 23:42:19 46° S 23:46:58 10° E
Cosmos 1244 Rocket 4.5 23:37:54 10° N 23:44:05 66° E 23:50:19 10° SSE
ATLAS 2AS CENTAUR R/B 4.4 23:39:38 10° NNW 23:44:20 17° NNE 23:48:38 11° ENE
Cosmos 1825 Rocket 4.4 23:40:31 10° NNW 23:44:52 56° W 23:49:09 10° S
CZ-2D R/B 4.2 23:43:08 10° SE 23:46:21 27° ENE 23:49:34 10° NNE
SAR-Lupe-1 4.1 23:43:15 10° NNE 23:46:46 54° E 23:50:14 10° S
Cosmos 1340 2.7 23:43:54 10° N 23:47:38 53° E 23:51:19 10° SSE
YAOGAN 1 3.8 23:44:56 10° ESE 23:48:07 20° ENE 23:51:20 10° NNE
Cosmos 2227 Rocket 2.3 23:43:07 10° NNW 23:48:38 52° ENE 23:54:07 10° SE
CZ-4 R/B 2.4 23:48:59 10° ESE 23:52:05 23° ENE 23:55:10 10° NNE
SL-4 R/B 3.7 23:55:01 10° NNW 23:57:17 16° NNE 23:58:53 13° NE
